Indiana, PA

12:44 AM EST on December 16, 2019 (GMT -0500)
Indiana County-Stewart

Weather History for KIDI - November, 2019

Change the Weather History Date:

Tuesday, November 12, 2019

  Actual Average Record
Temperature  
Mean Temperature 30 °F -  
Max Temperature 42 °F 49 °F 73 °F (1949)
Min Temperature 17 °F 33 °F 16 °F (1950)
Degree Days  
Heating Degree Days 36    
Moisture  
Dew Point 24 °F    
Average Humidity 89    
Maximum Humidity 100    
Minimum Humidity 68    
Precipitation  
Precipitation 0.00 in - - ()
Sea Level Pressure  
Sea Level Pressure 30.08 in    
Wind  
Wind Speed 8 mph ()    
Max Wind Speed 14 mph    
Max Gust Speed 21 mph    
Visibility 6.3 miles    
Events Fog    
Averages and records for this station are not official NWS values.
T = Trace of Precipitation, MM = Missing Value Source: Averaged Metar Reports

Daily Weather History Graph

Daily Weather History Graph

Search for Another Location

Airport or City:

Astronomy

Nov. 12, 2019 Rise Set
Actual Time 6:59 AM EST 5:01 PM EST
Civil Twilight 6:30 AM EST 5:30 PM EST
Nautical Twilight 5:57 AM EST 6:03 PM EST
Astronomical Twilight 5:25 AM EST 6:35 PM EST
Moon 5:27 PM EST (11/12) 6:48 AM EST (11/12)
Length of Visible Light 11h 00m
Length of Day
10h 02m
Full, 100% of the Moon is Illuminated
Nov 12
Full
Nov 19
Last Quarter
Nov 26
New
Dec 4
First Quarter
Dec 12
Full

Hourly Weather History & Observations

Time (EST) Temp. Windchill Dew Point Humidity Pressure Visibility Wind Dir Wind Speed Gust Speed Precip Events Conditions
12:15 AM 42.8 °F 38.0 °F 42.8 °F 100% 29.82 in 2.0 mi WNW 8.1 mph - N/A   Overcast
12:35 AM 41.0 °F 35.2 °F 41.0 °F 100% 29.83 in 2.0 mi WNW 9.2 mph 17.3 mph N/A   Overcast
12:55 AM 41.0 °F 34.7 °F 39.2 °F 93% 29.84 in 3.0 mi NW 10.4 mph 18.4 mph N/A   Overcast
1:15 AM 39.2 °F 32.0 °F 39.2 °F 100% 29.84 in 3.0 mi NW 11.5 mph - N/A   Overcast
1:35 AM 37.4 °F 30.8 °F 35.6 °F 93% 29.85 in 3.0 mi NW 9.2 mph 16.1 mph N/A   Overcast
1:55 AM 35.6 °F 28.6 °F 35.6 °F 100% 29.87 in 4.0 mi WNW 9.2 mph 15.0 mph N/A   Overcast
2:15 AM 33.8 °F 27.0 °F 33.8 °F 100% 29.88 in 1.5 mi WNW 8.1 mph 13.8 mph N/A   Overcast
2:35 AM 33.8 °F 27.0 °F 33.8 °F 100% 29.89 in 1.2 mi WNW 8.1 mph - N/A   Overcast
2:55 AM 33.8 °F 27.0 °F 33.8 °F 100% 29.90 in 1.0 mi NW 8.1 mph - N/A   Overcast
3:15 AM 32.0 °F 25.6 °F 32.0 °F 100% 29.91 in 1.0 mi NW 6.9 mph 16.1 mph N/A   Overcast
3:35 AM 32.0 °F 23.0 °F 32.0 °F 100% 29.91 in 1.0 mi NNW 11.5 mph 20.7 mph N/A   Overcast
3:55 AM 30.2 °F 21.3 °F 30.2 °F 100% 29.92 in 2.0 mi NW 10.4 mph - N/A   Overcast
4:15 AM 30.2 °F 22.6 °F 30.2 °F 100% 29.94 in 3.0 mi NW 8.1 mph - N/A   Overcast
4:35 AM 30.2 °F 21.3 °F 30.2 °F 100% 29.94 in 0.8 mi NW 10.4 mph 17.3 mph N/A   Overcast
4:55 AM 28.4 °F 19.7 °F 28.4 °F 100% 29.96 in 1.5 mi NW 9.2 mph 16.1 mph N/A   Overcast
5:15 AM 28.4 °F 21.2 °F 28.4 °F 100% 29.97 in 1.2 mi NW 6.9 mph 16.1 mph N/A   Overcast
5:35 AM 28.4 °F 19.1 °F 26.6 °F 93% 29.98 in 2.0 mi NW 10.4 mph 17.3 mph N/A   Overcast
5:55 AM 28.4 °F 22.2 °F 26.6 °F 93% 29.99 in 8.0 mi Variable 5.8 mph 15.0 mph N/A   Overcast
6:15 AM 28.4 °F 21.2 °F 26.6 °F 93% 30.01 in 10.0 mi NNW 6.9 mph - N/A   Overcast
6:35 AM 28.4 °F 21.2 °F 26.6 °F 93% 30.01 in 10.0 mi NNW 6.9 mph - N/A   Overcast
7:15 AM 26.6 °F 19.1 °F 24.8 °F 93% 30.03 in 10.0 mi NW 6.9 mph 12.7 mph N/A   Overcast
7:35 AM 26.6 °F 19.1 °F 24.8 °F 93% 30.04 in 10.0 mi NW 6.9 mph - N/A   Overcast
7:55 AM 26.6 °F 19.1 °F 24.8 °F 93% 30.05 in 10.0 mi NNW 6.9 mph - N/A   Overcast
8:15 AM 26.6 °F 20.0 °F 24.8 °F 93% 30.07 in 10.0 mi NW 5.8 mph - N/A   Overcast
8:35 AM 28.4 °F 21.2 °F 24.8 °F 86% 30.07 in 9.0 mi Variable 6.9 mph - N/A   Overcast
8:55 AM 28.4 °F 21.2 °F 24.8 °F 86% 30.07 in 8.0 mi NW 6.9 mph - N/A   Mostly Cloudy
9:15 AM 28.4 °F 22.2 °F 26.6 °F 93% 30.07 in 8.0 mi NW 5.8 mph - N/A   Mostly Cloudy
9:35 AM 28.4 °F 22.2 °F 26.6 °F 93% 30.07 in 10.0 mi NW 5.8 mph - N/A   Overcast
9:55 AM 28.4 °F 22.2 °F 26.6 °F 93% 30.07 in 1.5 mi NNW 5.8 mph - N/A   Overcast
10:15 AM 28.4 °F 22.2 °F 26.6 °F 93% 30.07 in 3.0 mi North 5.8 mph - N/A   Mostly Cloudy
10:35 AM 28.4 °F 21.2 °F 26.6 °F 93% 30.07 in 9.0 mi NNW 6.9 mph - N/A   Mostly Cloudy
10:55 AM 28.4 °F 19.7 °F 26.6 °F 93% 30.07 in 2.5 mi NW 9.2 mph - N/A   Mostly Cloudy
11:15 AM 30.2 °F 22.6 °F 26.6 °F 86% 30.07 in 2.0 mi NNW 8.1 mph - N/A   Mostly Cloudy
11:35 AM 28.4 °F 18.0 °F 26.6 °F 93% 30.08 in 0.5 mi NNW 12.7 mph - N/A   Overcast
12:15 PM 28.4 °F 21.2 °F 26.6 °F 93% 30.07 in 8.0 mi NNW 6.9 mph - N/A   Scattered Clouds
12:35 PM 30.2 °F 23.4 °F 24.8 °F 80% 30.07 in 7.0 mi NW 6.9 mph 16.1 mph N/A   Mostly Cloudy
12:55 PM 28.4 °F 19.1 °F 24.8 °F 86% 30.08 in 10.0 mi NW 10.4 mph - N/A   Mostly Cloudy
1:15 PM 28.4 °F 19.1 °F 24.8 °F 86% 30.08 in 2.5 mi NNW 10.4 mph 16.1 mph N/A   Haze
1:35 PM 28.4 °F 20.4 °F 24.8 °F 86% 30.08 in 9.0 mi NNW 8.1 mph - N/A   Mostly Cloudy
1:55 PM 24.8 °F 15.3 °F 23.0 °F 93% 30.09 in 0.2 mi NNW 9.2 mph 20.7 mph N/A Fog Light Freezing Fog
2:15 PM 26.6 °F 17.5 °F 23.0 °F 86% 30.10 in 10.0 mi NW 9.2 mph - N/A   Mostly Cloudy
2:35 PM 26.6 °F 15.2 °F 23.0 °F 86% 30.10 in 0.5 mi NW 13.8 mph 20.7 mph N/A   Overcast
2:55 PM 24.8 °F 16.9 °F 24.8 °F 100% 30.12 in 0.2 mi Variable 6.9 mph - N/A Fog Light Freezing Fog
3:15 PM 24.8 °F 14.0 °F 24.8 °F 100% 30.12 in 0.8 mi North 11.5 mph 18.4 mph N/A   Overcast
3:35 PM 24.8 °F 16.1 °F 21.2 °F 86% 30.13 in 2.5 mi NNW 8.1 mph 18.4 mph N/A   Haze
3:55 PM 24.8 °F 14.6 °F 17.6 °F 74% 30.14 in 10.0 mi NNW 10.4 mph 17.3 mph N/A   Scattered Clouds
4:15 PM 24.8 °F 16.1 °F 19.4 °F 80% 30.15 in 9.0 mi North 8.1 mph - N/A   Mostly Cloudy
4:35 PM 24.8 °F 17.9 °F 19.4 °F 80% 30.16 in 9.0 mi North 5.8 mph - N/A   Overcast
5:15 PM 23.0 °F 13.9 °F 17.6 °F 80% 30.17 in 10.0 mi NW 8.1 mph - N/A   Mostly Cloudy
5:35 PM 23.0 °F 15.8 °F 15.8 °F 74% 30.18 in 10.0 mi NW 5.8 mph - N/A   Overcast
5:55 PM 23.0 °F 14.7 °F 15.8 °F 74% 30.19 in 10.0 mi NW 6.9 mph - N/A   Mostly Cloudy
6:15 PM 23.0 °F 15.8 °F 15.8 °F 74% 30.21 in 10.0 mi North 5.8 mph - N/A   Overcast
6:35 PM 21.2 °F 13.6 °F 14.0 °F 74% 30.22 in 10.0 mi NNW 5.8 mph - N/A   Overcast
6:55 PM 21.2 °F 14.9 °F 14.0 °F 74% 30.23 in 10.0 mi Variable 4.6 mph - N/A   Overcast
7:15 PM 21.2 °F 13.6 °F 12.2 °F 68% 30.24 in 10.0 mi NNW 5.8 mph - N/A   Overcast
7:35 PM 21.2 °F 14.9 °F 12.2 °F 68% 30.25 in 10.0 mi NNW 4.6 mph - N/A   Mostly Cloudy
7:55 PM 19.4 °F 12.8 °F 12.2 °F 74% 30.26 in 10.0 mi NW 4.6 mph - N/A   Mostly Cloudy
8:15 PM 19.4 °F - 14.0 °F 80% 30.27 in 10.0 mi Calm Calm - N/A   Scattered Clouds
8:35 PM 19.4 °F 12.8 °F 14.0 °F 80% 30.27 in 10.0 mi NW 4.6 mph - N/A   Mostly Cloudy
8:55 PM 19.4 °F 12.8 °F 14.0 °F 80% 30.27 in 10.0 mi NW 4.6 mph - N/A   Overcast
9:15 PM 19.4 °F 12.8 °F 15.8 °F 86% 30.28 in 6.0 mi WNW 4.6 mph - N/A   Haze
9:35 PM 19.4 °F 14.3 °F 15.8 °F 86% 30.28 in 10.0 mi WNW 3.5 mph - N/A   Overcast
10:15 PM 17.6 °F 10.7 °F 15.8 °F 93% 30.28 in 10.0 mi WNW 4.6 mph - N/A   Mostly Cloudy
10:35 PM 19.4 °F 9.5 °F 17.6 °F 93% 30.28 in 10.0 mi WNW 8.1 mph - N/A   Scattered Clouds
10:55 PM 19.4 °F 11.5 °F 17.6 °F 93% 30.29 in 10.0 mi WNW 5.8 mph 12.7 mph N/A   Mostly Cloudy
11:15 PM 19.4 °F 8.6 °F 15.8 °F 86% 30.29 in 10.0 mi WNW 9.2 mph - N/A   Overcast
11:35 PM 19.4 °F 7.9 °F 15.8 °F 86% 30.29 in 10.0 mi WNW 10.4 mph - N/A   Mostly Cloudy
11:55 PM 17.6 °F 7.3 °F 15.8 °F 93% 30.29 in 10.0 mi WNW 8.1 mph - N/A   Mostly Cloudy